Home > Weather > Laval > Past weeks

Flag for Canada Past Weather in Laval, Quebec, Canada — Yesterday and Last 2 Weeks

Now
66 °F

Passing clouds.


Feels Like: 66 °F
Forecast: 57 / 83 °F
Wind: 3 mph from West

Location: Montreal / Mirabel

Current Time: Jul 1, 2016 at 12:24:54 AM

Latest Report: Jul 1, 2016 at 12:00 AM


Visibility: 25 mi

Pressure: 29.97 "Hg

Humidity: 64%

Dew Point: 54 °F

Location of LavalLocation

Past Weather in Laval — Graph

°F

Laval Temperature Yesterday

Maximum temperature yesterday: 81 °F (at 4:00 PM)
Minimum temperature yesterday: 52 °F (at 4:00 AM)
Average temperature yesterday: 67 °F

High & Low Weather Summary for the Past Weeks

 TemperatureHumidityPressure
High90 °F (Jun 19, 5:00 PM)100% (Jun 23, 3:00 AM)30.22 "Hg (Jun 23, 3:00 AM)
Low46 °F (Jun 24, 4:00 AM)25% (Jun 18, 4:00 PM)29.60 "Hg (Jun 20, 11:00 PM)
Average68 °F66%29.94 "Hg
* Reported Jun 15 11:00 PM — Jun 30 11:00 PM, Laval, Weather by CustomWeather, © 2016

Note: Actual official high and low records may vary slightly from our data, if they occured in-between our weather recording intervals... More about our weather records

Advertising

Laval Weather History for the Previous 24 Hours

Scroll right to see more
 ConditionsComfort  
Time TempWeatherWind HumidityBarometerVisibility
11:00 PM
Thu, Jun 30
66 °FPassing clouds.3 mph64%29.96 "Hg25 mi
10:00 PM70 °FPassing clouds.3 mph57%29.96 "Hg25 mi
9:00 PM72 °FPassing clouds.8 mph57%29.95 "Hg45 mi
8:00 PM75 °FPassing clouds.8 mph50%29.94 "Hg45 mi
7:00 PM79 °FPassing clouds.5 mph42%29.93 "Hg45 mi
6:00 PM81 °FPassing clouds.7 mph39%29.92 "Hg45 mi
5:00 PM81 °FPassing clouds.7 mph37%29.92 "Hg45 mi
4:00 PM81 °FPassing clouds.6 mph39%29.93 "Hg45 mi
3:00 PM79 °FPassing clouds.10 mph48%29.93 "Hg45 mi
2:00 PM79 °FPassing clouds.7 mph48%29.94 "Hg45 mi
1:00 PM77 °FPassing clouds.8 mph44%29.95 "Hg45 mi
12:00 PM75 °FPassing clouds.7 mph61%29.96 "Hg45 mi
11:00 AM73 °FPassing clouds.7 mph69%29.96 "Hg35 mi
10:00 AM70 °FPassing clouds.6 mph83%29.96 "Hg25 mi
9:00 AM66 °FPassing clouds.6 mph88%29.96 "Hg25 mi
8:00 AM63 °FPassing clouds.6 mph94%29.95 "Hg25 mi
7:00 AM59 °FPassing clouds.5 mph100%29.95 "Hg25 mi
6:00 AM52 °FLight fog.2 mph100%29.94 "Hg25 mi
5:00 AM52 °FLight fog.2 mph100%29.94 "Hg25 mi
4:00 AM52 °FPassing clouds.No wind100%29.94 "Hg25 mi
3:00 AM54 °FPassing clouds.3 mph100%29.93 "Hg25 mi
2:00 AM54 °FPassing clouds.No wind100%29.93 "Hg25 mi
1:00 AM55 °FPassing clouds.2 mph100%29.93 "Hg25 mi
12:00 AM55 °FPassing clouds.3 mph100%29.93 "Hg25 mi
Weather by CustomWeather, © 2016

See weather overviewHow to use our weather pages